[[{"header":{"parameterUnit":"m.s-1","parameterCategory":1,"la1":30.2991,"la2":30.254,"lo1":-89.0895,"lo2":-89.0444,"dy":0.0017,"dx":0.0017,"nx":28,"ny":28,"refTime":"2025-07-20T21:00:00:Z","depth":0,"parameterNumber":2,"parameterNumberName":"U-component_of_WINDS"},"data":[0,0,0,0,0,0,0,0,0,0,0,0,0,0,0,0,0,0,0,0,0,0,0,0,0,0,0,0,0,0,0,0,0,0,0,0,0,0,0,0,0,0,0,0,0,0,0,0,0,0,0,0,0,0,0,0,0,0,3.9439,3.9441,0,3.9576,3.9578,3.9579,3.9538,3.9535,3.9533,3.953,3.9672,3.9678,3.9685,0,0,0,0,0,0,0,0,0,0,0,0,0,3.9145,3.915,3.9439,3.9441,3.9443,3.9576,3.9578,3.958,3.9539,3.9535,3.9532,3.9529,3.967,3.9678,3.9685,0,0,0,0,0,0,0,0,0,0,0,0,0,3.9276,3.9152,3.9439,3.9438,3.944,3.9576,3.9578,3.958,3.9539,3.9535,3.9531,3.9527,3.9667,3.9677,3.9686,3.9832,0,0,3.9716,3.972,0,0,0,0,0,0,0,0,3.9269,3.9287,3.9437,3.9439,3.944,3.9536,3.9526,3.9665,3.9541,3.9502,3.953,3.9525,3.963,3.9643,3.9678,3.9839,3.9845,3.9717,3.9723,3.9727,3.973,0,0,0,0,0,0,0,3.926,3.9281,3.9493,3.9439,3.9441,3.9432,3.9446,3.9552,3.9588,3.9505,3.9502,3.9519,3.963,3.9669,3.9681,3.9847,3.9717,3.9725,3.9731,3.9735,4.0135,4.0139,0,0,0,0,0,0,3.9249,3.9274,3.9489,3.9498,3.9342,3.9441,3.9456,3.9509,3.9587,3.9595,3.9522,3.9516,3.9654,3.967,3.9686,3.9862,3.9727,3.9736,3.9741,4.013,4.0136,4.0141,0,0,0,0,0,0,3.9243,3.9269,3.9484,3.9385,3.9412,3.945,3.951,3.9514,3.9553,3.96,3.9607,3.9555,3.9651,3.9672,3.9796,3.9867,3.974,3.9749,4.0124,4.0132,4.0138,4.0216,0,0,0,0,0,0,3.9235,3.9267,3.9322,3.9386,3.9417,3.9591,3.9515,3.952,3.9569,3.9563,3.9632,3.964,3.965,3.9782,3.9806,3.9878,3.9757,4.0118,4.0128,4.0136,4.0207,4.0225,4.024,0,0,0,0,0,3.9224,3.9339,3.9325,3.9351,3.9487,3.9595,3.9613,3.9621,3.9575,3.9631,3.9662,3.9638,3.9855,3.9795,3.9821,3.9897,4.0114,4.0125,4.0135,4.02,4.0222,4.024,0,0,0,0,0,0,3.9283,3.9347,3.9333,3.9471,3.9528,3.9588,3.966,3.9644,3.9715,3.9707,3.9714,3.9731,3.9858,3.989,3.9822,4.0043,3.9977,3.9994,4.0018,4.0038,4.0054,4.0045,3.9765,0,0,0,0,0,3.9311,3.9393,3.9446,3.9563,3.9592,3.9621,3.9669,3.967,3.9729,3.9754,3.9793,3.9852,3.9934,3.9988,4.0065,4.0211,4.0226,4.0277,4.0293,4.0306,4.0321,4.0402,4.0425,4.0177,4.0176,4.0176,0,0,3.9372,3.9417,3.9469,3.9576,3.962,3.9706,3.9642,3.9735,3.9799,3.9768,3.9887,3.9919,3.9985,4.0121,4.0183,4.0151,4.0393,4.032,4.033,4.0338,4.0415,4.0439,4.046,4.0184,4.0183,4.0181,0,0,3.9527,3.9569,3.9672,3.9717,3.9784,3.9803,3.9827,3.989,3.991,4.0029,4.0008,4.0084,4.0224,4.0273,4.0316,4.0489,4.047,4.0514,4.06,4.0679,4.0698,4.0716,4.0779,4.0801,4.0528,4.0528,4.0529,0,3.9594,3.9722,3.9727,3.9822,3.987,3.9845,3.995,3.9994,4.0083,4.0118,4.0081,4.0256,4.0299,4.0447,4.0489,4.0524,4.0553,4.0507,4.0695,4.0713,4.0729,4.0789,4.0813,4.0534,4.0533,4.0532,4.0532,0,3.9802,3.9891,3.9966,4.0052,4.0109,4.0208,4.0229,4.0285,4.0282,4.0304,4.0427,4.0478,4.0565,4.06,4.0598,4.0748,4.0726,4.0692,4.0627,4.0758,4.0814,4.0837,4.0541,4.0539,4.0537,4.0536,0,0,3.9999,4.0086,4.0114,4.0153,4.0225,4.0295,4.0393,4.0478,4.0527,4.0589,4.0673,4.0792,4.0761,4.081,4.0813,4.0881,4.1017,4.0839,4.0841,4.0872,4.1187,4.1213,4.1239,4.1004,4.1008,4.1011,4.1181,0,4.0161,4.0334,4.0341,4.0499,4.0582,4.0559,4.0645,4.0699,4.0722,4.0796,4.0822,4.0907,4.0859,4.0888,4.0955,4.0986,4.108,4.0974,4.1083,4.1087,4.1069,4.1269,4.1297,4.1455,4.1204,4.1207,4.121,0,4.0374,4.0442,4.0608,4.0669,4.0704,4.0781,4.086,4.093,4.0991,4.1004,4.1058,4.1051,4.1153,4.1083,4.1224,4.1151,4.1196,4.1218,4.1224,4.1236,4.1158,4.1288,4.1506,4.153,4.1245,4.1242,4.1239,0,4.0503,4.0636,4.0753,4.0787,4.086,4.0915,4.0949,4.1005,4.1056,4.1125,4.1158,4.1238,4.1283,4.1345,4.136,4.1307,4.1501,4.1432,4.1516,4.1516,4.1559,4.1556,4.1789,4.1585,4.1585,4.1584,4.1584,0,4.0684,4.0787,4.0812,4.0884,4.0999,4.1006,4.112,4.1149,4.1199,4.1278,4.1262,4.1336,4.135,4.1427,4.1439,4.1555,4.1574,4.1588,4.1591,4.1591,4.1589,4.1622,4.1612,4.1591,4.1589,4.1588,4.1587,0,4.0849,4.0869,4.0995,4.1054,4.1071,4.1153,4.1204,4.1273,4.1294,4.1393,4.1417,4.1451,4.154,4.1561,4.1668,4.1676,4.1813,4.1804,4.1793,4.1793,4.1875,4.1868,4.2138,4.2174,4.1945,4.1948,4.1949,0,4.0964,4.1043,4.1109,4.116,4.1196,4.1277,4.1329,4.1339,4.1393,4.1469,4.1529,4.1617,4.1688,4.1833,4.1867,4.1949,4.1943,4.2032,4.1955,4.1953,4.1946,4.1942,4.195,4.2047,4.2049,4.2051,4.2053,0,4.1167,4.1173,4.1248,4.1326,4.1388,4.1451,4.151,4.1553,4.1571,4.1633,4.1724,4.1779,4.1888,4.1976,4.2058,4.2092,4.2077,4.2077,4.2101,4.2102,4.2093,4.2101,4.1834,4.2071,4.2069,4.2068,4.2067,4.2066,4.1312,4.1381,4.1438,4.1522,4.1568,4.1624,4.1692,4.1721,4.1797,4.1886,4.1887,4.1987,4.2046,4.2154,4.2194,4.2273,4.2246,4.228,4.2289,4.2298,4.2306,4.2079,4.2288,4.2287,4.2287,4.2286,4.2286,0,4.1515,4.1551,4.1628,4.1711,4.1777,4.1755,4.1819,4.1877,4.1964,4.202,4.209,4.2195,4.228,4.2321,4.2406,4.2461,4.2456,4.2483,4.248,4.2488,4.2325,4.2296,4.2486,4.2486,4.2486,4.2485,4.2485,4.2485,4.1629,4.1745,4.1758,4.1896,4.1931,4.2029,4.2068,4.2119,4.2164,4.2282,4.2352,4.2378,4.2428,4.2516,4.2593,4.2603,4.2636,4.2667,4.2673,4.252,4.25,4.248,4.2454,4.2673,4.2673,4.283,4.2832,4.2833]},{"header":{"parameterUnit":"m.s-1","parameterCategory":1,"la1":30.2991,"la2":30.254,"lo1":-89.0895,"lo2":-89.0444,"dy":0.0017,"dx":0.0017,"nx":28,"ny":28,"refTime":"2025-07-20T21:00:00:Z","depth":0,"parameterNumber":3,"parameterNumberName":"V-component_of_WINDS"},"data":[0,0,0,0,0,0,0,0,0,0,0,0,0,0,0,0,0,0,0,0,0,0,0,0,0,0,0,0,0,0,0,0,0,0,0,0,0,0,0,0,0,0,0,0,0,0,0,0,0,0,0,0,0,0,0,0,0,0,-1.1715,-1.1715,0,-1.1798,-1.1799,-1.18,-1.183,-1.183,-1.183,-1.183,-1.1914,-1.1917,-1.1919,0,0,0,0,0,0,0,0,0,0,0,0,0,-1.1582,-1.1584,-1.1714,-1.1715,-1.1717,-1.1798,-1.1799,-1.18,-1.1831,-1.183,-1.183,-1.183,-1.1914,-1.1917,-1.192,0,0,0,0,0,0,0,0,0,0,0,0,0,-1.165,-1.1585,-1.1714,-1.1742,-1.1745,-1.1797,-1.1799,-1.18,-1.1831,-1.183,-1.183,-1.1829,-1.1913,-1.1916,-1.192,-1.1951,0,0,-1.1932,-1.1933,0,0,0,0,0,0,0,0,-1.1646,-1.1655,-1.1737,-1.174,-1.1744,-1.1803,-1.1783,-1.1851,-1.1831,-1.1798,-1.183,-1.1829,-1.1878,-1.1884,-1.1901,-1.1955,-1.1959,-1.1932,-1.1934,-1.1936,-1.1937,0,0,0,0,0,0,0,-1.1641,-1.1651,-1.1747,-1.1738,-1.1742,-1.175,-1.1759,-1.1796,-1.1839,-1.1801,-1.1803,-1.1813,-1.188,-1.1897,-1.1903,-1.196,-1.1932,-1.1935,-1.1937,-1.1939,-1.2045,-1.2046,0,0,0,0,0,0,-1.1632,-1.1647,-1.1745,-1.175,-1.1693,-1.1752,-1.1763,-1.1785,-1.1839,-1.1847,-1.1813,-1.1814,-1.1891,-1.1899,-1.1906,-1.1947,-1.1936,-1.1939,-1.1941,-1.2045,-1.2046,-1.2046,0,0,0,0,0,0,-1.1629,-1.164,-1.1741,-1.1699,-1.1713,-1.1755,-1.1779,-1.1786,-1.1804,-1.1848,-1.1856,-1.1823,-1.1891,-1.1901,-1.194,-1.195,-1.1941,-1.1944,-1.2044,-1.2045,-1.2046,-1.2028,0,0,0,0,0,0,-1.1625,-1.1639,-1.1651,-1.1699,-1.1715,-1.1774,-1.178,-1.1788,-1.181,-1.1812,-1.1859,-1.1867,-1.1891,-1.1934,-1.1944,-1.1955,-1.1947,-1.2043,-1.2045,-1.2046,-1.2028,-1.2028,-1.2028,0,0,0,0,0,-1.162,-1.1643,-1.1652,-1.1663,-1.1731,-1.1774,-1.1783,-1.1811,-1.1811,-1.1824,-1.1852,-1.1865,-1.1948,-1.1938,-1.1949,-1.1962,-1.2043,-1.2044,-1.2045,-1.2028,-1.2028,-1.2028,0,0,0,0,0,0,-1.1594,-1.1649,-1.166,-1.1699,-1.1732,-1.1779,-1.1796,-1.181,-1.1844,-1.1844,-1.1877,-1.1888,-1.1924,-1.1947,-1.1935,-1.1995,-1.1996,-1.2,-1.1979,-1.198,-1.198,-1.1973,-1.195,0,0,0,0,0,-1.1593,-1.1624,-1.167,-1.17,-1.1716,-1.1753,-1.1773,-1.1792,-1.1827,-1.1841,-1.1872,-1.1906,-1.194,-1.1961,-1.1994,-1.2032,-1.2042,-1.2046,-1.2046,-1.2046,-1.2048,-1.207,-1.2072,-1.205,-1.205,-1.205,0,0,-1.1591,-1.1625,-1.1642,-1.1696,-1.1723,-1.1754,-1.1765,-1.1797,-1.182,-1.1846,-1.1885,-1.1909,-1.1949,-1.1988,-1.2006,-1.2008,-1.2057,-1.2048,-1.2047,-1.205,-1.2072,-1.2074,-1.2076,-1.2051,-1.2051,-1.2051,0,0,-1.1603,-1.1631,-1.1659,-1.1687,-1.1729,-1.1754,-1.1761,-1.1807,-1.1824,-1.1864,-1.1884,-1.1912,-1.1969,-1.1997,-1.2019,-1.2042,-1.2055,-1.2052,-1.2053,-1.2074,-1.2076,-1.2077,-1.2086,-1.2088,-1.2054,-1.2054,-1.2054,0,-1.1594,-1.1642,-1.1672,-1.1703,-1.1726,-1.1752,-1.1781,-1.1806,-1.1856,-1.1872,-1.1873,-1.1946,-1.1974,-1.202,-1.2026,-1.2043,-1.2051,-1.2046,-1.2073,-1.2075,-1.2077,-1.2085,-1.2089,-1.2054,-1.2054,-1.2054,-1.2054,0,-1.163,-1.1663,-1.168,-1.1729,-1.1754,-1.1784,-1.1818,-1.184,-1.1857,-1.1882,-1.1923,-1.1958,-1.1999,-1.2012,-1.2028,-1.206,-1.206,-1.2067,-1.2068,-1.2078,-1.2086,-1.209,-1.2053,-1.2053,-1.2053,-1.2053,0,0,-1.1627,-1.1692,-1.1698,-1.1721,-1.1769,-1.1795,-1.1827,-1.1867,-1.1885,-1.192,-1.1947,-1.1995,-1.2002,-1.2027,-1.2047,-1.2065,-1.2082,-1.207,-1.2072,-1.2071,-1.2119,-1.2113,-1.2117,-1.2092,-1.2092,-1.2093,-1.2116,0,-1.1645,-1.1702,-1.173,-1.1775,-1.1805,-1.1831,-1.1858,-1.1891,-1.1915,-1.1945,-1.1972,-1.2006,-1.2012,-1.2027,-1.2047,-1.2076,-1.2092,-1.2075,-1.2117,-1.2118,-1.2106,-1.2121,-1.2115,-1.2135,-1.2119,-1.212,-1.212,0,-1.1673,-1.1708,-1.1755,-1.1801,-1.1815,-1.1839,-1.1879,-1.1907,-1.1945,-1.1962,-1.199,-1.2009,-1.2044,-1.2043,-1.2091,-1.2079,-1.2098,-1.2115,-1.2116,-1.2121,-1.2119,-1.2126,-1.2142,-1.2145,-1.2126,-1.2126,-1.2125,0,-1.1666,-1.1724,-1.1761,-1.1779,-1.1833,-1.185,-1.1873,-1.1911,-1.1934,-1.1969,-1.1984,-1.2022,-1.2043,-1.2073,-1.2103,-1.21,-1.2148,-1.215,-1.2162,-1.2162,-1.2171,-1.217,-1.219,-1.2184,-1.2184,-1.2184,-1.2184,0,-1.1683,-1.1711,-1.1758,-1.178,-1.1813,-1.1846,-1.1877,-1.1902,-1.1936,-1.1964,-1.1988,-1.2014,-1.2052,-1.2082,-1.2106,-1.2142,-1.2152,-1.2166,-1.2172,-1.2164,-1.2162,-1.2176,-1.2175,-1.2184,-1.2184,-1.2184,-1.2184,0,-1.168,-1.1713,-1.1754,-1.1802,-1.1815,-1.1837,-1.1878,-1.1901,-1.1927,-1.1962,-1.1972,-1.2013,-1.205,-1.2083,-1.2132,-1.2148,-1.2185,-1.2193,-1.2172,-1.2175,-1.2186,-1.2184,-1.2216,-1.2222,-1.2212,-1.2212,-1.2212,0,-1.1688,-1.1711,-1.1761,-1.1782,-1.1805,-1.1838,-1.1861,-1.1894,-1.1918,-1.1964,-1.1981,-1.202,-1.2053,-1.2112,-1.2146,-1.2184,-1.2192,-1.2201,-1.2198,-1.2189,-1.2192,-1.219,-1.2193,-1.22,-1.22,-1.22,-1.22,0,-1.17,-1.1715,-1.1748,-1.1787,-1.1815,-1.1847,-1.188,-1.1895,-1.1935,-1.196,-1.1999,-1.2024,-1.2075,-1.2114,-1.2156,-1.218,-1.2197,-1.2201,-1.2206,-1.2197,-1.2184,-1.2191,-1.2172,-1.22,-1.22,-1.22,-1.22,-1.22,-1.1703,-1.1724,-1.1763,-1.18,-1.1828,-1.1858,-1.1882,-1.1911,-1.1944,-1.1988,-1.2006,-1.2045,-1.2084,-1.2142,-1.2166,-1.2198,-1.2201,-1.2208,-1.2209,-1.221,-1.2209,-1.218,-1.2205,-1.2205,-1.2206,-1.2206,-1.2206,0,-1.1716,-1.1742,-1.1775,-1.1821,-1.1849,-1.1863,-1.19,-1.1923,-1.1958,-1.1992,-1.2024,-1.2069,-1.2107,-1.2144,-1.2184,-1.2202,-1.2211,-1.2211,-1.221,-1.2216,-1.2204,-1.2196,-1.2204,-1.2204,-1.2204,-1.2204,-1.2204,-1.2204,-1.1726,-1.1762,-1.1782,-1.1834,-1.186,-1.1899,-1.1919,-1.1948,-1.1975,-1.2024,-1.2056,-1.208,-1.2116,-1.2159,-1.2194,-1.2204,-1.2218,-1.2216,-1.2228,-1.2217,-1.2216,-1.2216,-1.2208,-1.2219,-1.2219,-1.2237,-1.2237,-1.2237]}]]